Paso Robles, CA

1:28 AM PST on February 10, 2016 (GMT -0800)
Paso Robles Municipal

Weather History for KPRB - October, 2013

Change the Weather History Date:

Tuesday, October 1, 2013

  Actual Average Record
Temperature  
Mean Temperature 69 °F 66 °F  
Max Temperature 84 °F 84 °F 106 °F (1980)
Min Temperature 54 °F 48 °F 32 °F (1950)
Degree Days  
Heating Degree Days 0 2  
Month to date heating degree days 0 2  
Since 1 July heating degree days 11 34  
Cooling Degree Days 4 3  
Month to date cooling degree days 4 3  
Year to date cooling degree days 1172 894  
Growing Degree Days 18 (Base 50)    
Moisture  
Dew Point 50 °F    
Average Humidity 62    
Maximum Humidity 93    
Minimum Humidity 30    
Precipitation  
Precipitation 0.00 in 0.01 in 0.29 in (1976)
Month to date precipitation 0.00 0.01  
Year to date precipitation 1.46 9.13  
Since 1 July precipitation T  
Sea Level Pressure  
Sea Level Pressure 29.94 in    
Wind  
Wind Speed 8 mph (NW)    
Max Wind Speed 18 mph    
Max Gust Speed 22 mph    
Visibility 10 miles    
Events      
T = Trace of Precipitation, MM = Missing Value Source: NWS Daily Summary

Daily Weather History Graph

Daily Weather History Graph

Search for Another Location

Airport or City:

Trip Planner

Search our weather history database for the weather conditions in past years. The results will help you decide how hot, cold, wet, or windy it might be!

Date:

Astronomy

Oct. 01, 2013 Rise Set
Actual Time 6:57 AM PDT 6:45 PM PDT
Civil Twilight 6:32 AM PDT 7:11 PM PDT
Nautical Twilight 6:02 AM PDT 7:40 PM PDT
Astronomical Twilight 5:32 AM PDT 8:10 PM PDT
Moon 3:42 AM PDT (10/1) 4:47 PM PDT (10/1)
Length of Visible Light 12h 38m
Length of Day
11h 48m
Waning Crescent, 11% of the Moon is Illuminated
Oct 1
Waning Crescent
Oct 4
New
Oct 11
First Quarter
Oct 18
Full
Oct 26
Last Quarter

Hourly Weather History & Observations

Time (PDT) Temp. Dew Point Humidity Pressure Visibility Wind Dir Wind Speed Gust Speed Precip Events Conditions
12:53 AM 63.0 °F 55.9 °F 78% 29.94 in 10.0 mi NW 5.8 mph - N/A   Clear
1:53 AM 62.1 °F 55.9 °F 80% 29.95 in 10.0 mi NW 10.4 mph - N/A   Clear
2:53 AM 60.1 °F 55.0 °F 83% 29.95 in 10.0 mi NW 4.6 mph - N/A   Clear
3:53 AM 59.0 °F 55.0 °F 87% 29.95 in 10.0 mi NW 5.8 mph - N/A   Clear
4:53 AM 57.9 °F 55.9 °F 93% 29.95 in 10.0 mi NW 9.2 mph - N/A   Clear
5:53 AM 57.0 °F 54.0 °F 89% 29.96 in 10.0 mi NW 5.8 mph - N/A   Clear
6:40 AM 55.4 °F 53.6 °F 94% 29.98 in 10.0 mi Calm Calm - N/A   Partly Cloudy
6:53 AM 55.9 °F 53.1 °F 90% 29.97 in 10.0 mi Calm Calm - N/A   Scattered Clouds
7:01 AM 55.4 °F 51.8 °F 88% 29.99 in 10.0 mi Calm Calm - N/A   Mostly Cloudy
7:53 AM 57.0 °F 54.0 °F 89% 29.99 in 10.0 mi North 4.6 mph - N/A   Overcast
8:53 AM 61.0 °F 55.0 °F 81% 29.99 in 10.0 mi NNW 6.9 mph - N/A   Mostly Cloudy
9:13 AM 60.8 °F 53.6 °F 77% 30.01 in 10.0 mi NNW 6.9 mph - N/A   Scattered Clouds
9:53 AM 64.9 °F 54.0 °F 68% 29.99 in 10.0 mi NNW 12.7 mph - N/A   Clear
10:53 AM 66.0 °F 48.9 °F 54% 29.98 in 10.0 mi NW 10.4 mph - N/A   Clear
11:53 AM 71.1 °F 52.0 °F 51% 29.96 in 10.0 mi NW 8.1 mph - N/A   Clear
12:53 PM 75.0 °F 52.0 °F 44% 29.94 in 10.0 mi Variable 3.5 mph - N/A   Clear
1:53 PM 79.0 °F 52.0 °F 39% 29.91 in 10.0 mi Variable 6.9 mph - N/A   Clear
2:53 PM 80.1 °F 50.0 °F 35% 29.89 in 10.0 mi Calm Calm - N/A   Clear
3:53 PM 82.9 °F 48.9 °F 31% 29.87 in 10.0 mi NNW 4.6 mph - N/A   Clear
4:53 PM 82.9 °F 48.0 °F 29% 29.86 in 10.0 mi WNW 5.8 mph - N/A   Clear
5:53 PM 81.0 °F 46.9 °F 30% 29.86 in 10.0 mi NNW 12.7 mph - N/A   Clear
6:53 PM 72.0 °F 43.0 °F 35% 29.86 in 10.0 mi WNW 10.4 mph - N/A   Clear
7:53 PM 66.0 °F 42.1 °F 42% 29.88 in 10.0 mi WNW 13.8 mph - N/A   Clear
8:53 PM 63.0 °F 43.0 °F 48% 29.91 in 10.0 mi NW 15.0 mph - N/A   Clear
9:53 PM 61.0 °F 42.1 °F 50% 29.91 in 10.0 mi NW 16.1 mph 19.6 mph N/A   Clear
10:53 PM 60.1 °F 42.1 °F 51% 29.92 in 10.0 mi NW 9.2 mph - N/A   Clear
11:53 PM 57.9 °F 43.0 °F 58% 29.92 in 10.0 mi NW 8.1 mph - N/A   Clear